DWS9845 Weather Reports


time (UTC)temp
C
wind
direction
speed
KPH
gust
KPH
rain 1hr
cm
rain 24hr
cm
rain mn
cm
humidity
%
barometer
mb
20260506213250 30 202 3.2 8.0 0.00 0.00 0.00 82 1006.6
20260506212745 30 202 3.2 8.0 0.00 0.00 0.00 82 1006.6
20260506212239 30 203 3.2 8.0 0.00 0.00 0.00 82 1006.6
20260506211736 30 202 3.2 9.7 0.00 0.00 0.00 82 1006.7
20260506211227 30 202 3.2 9.7 0.00 0.00 0.00 82 1006.6
20260506210720 30 201 3.2 8.0 0.00 0.00 0.00 81 1006.6
20260506210218 30 202 3.2 8.0 0.00 0.00 0.00 81 1006.6
20260506205709 30 203 3.2 8.0 0.00 0.00 0.00 82 1006.6
20260506205202 30 203 3.2 8.0 0.00 0.00 0.00 82 1006.7
20260506204657 30 204 1.6 6.4 0.00 0.00 0.00 83 1006.7
20260506204150 30 204 3.2 9.7 0.00 0.00 0.00 84 1006.7
20260506203912 29 204 3.2 9.7 0.00 0.00 0.00 84 1006.9
20260506203149 29 204 3.2 9.7 0.00 0.00 0.00 84 1006.9
20260506202638 29 204 3.2 6.4 0.00 0.00 0.00 85 1007.0
20260506202128 29 204 3.2 9.7 0.00 0.00 0.00 85 1007.0
20260506201838 28 204 3.2 12.9 0.00 0.00 0.00 85 1007.0
20260506201110 28 199 3.2 12.9 0.00 0.00 0.00 85 1007.0
20260506200603 28 190 3.2 9.7 0.00 0.00 0.00 84 1007.0
20260506200056 29 190 1.6 9.7 0.00 0.00 0.00 84 1007.1
20260506195549 29 188 1.6 6.4 0.00 0.00 0.00 84 1007.3
20260506195047 29 188 3.2 9.7 0.00 0.00 0.00 84 1007.2
20260506194546 29 188 3.2 12.9 0.00 0.00 0.00 84 1007.3
20260506194042 29 190 3.2 12.9 0.00 0.00 0.00 84 1007.3
20260506193525 29 186 3.2 8.0 0.00 0.00 0.00 84 1007.4
20260506193019 29 186 3.2 8.0 0.00 0.00 0.00 85 1007.5
20260506192517 29 186 3.2 9.7 0.00 0.00 0.00 84 1007.4
20260506192007 29 184 1.6 9.7 0.00 0.00 0.00 84 1007.4
20260506191501 29 186 1.6 8.0 0.00 0.00 0.00 84 1007.5
20260506190955 29 186 1.6 6.4 0.00 0.00 0.00 85 1007.7
20260506190449 28 186 3.2 6.4 0.00 0.00 0.00 86 1007.7
20260506185942 28 192 3.2 6.4 0.00 0.00 0.00 86 1007.8
20260506185435 28 192 3.2 6.4 0.00 0.00 0.00 86 1007.9
20260506185146 28 192 1.6 6.4 0.00 0.00 0.00 86 1007.9
20260506184419 28 192 3.2 8.0 0.00 0.00 0.00 86 1008.0
20260506183918 28 192 3.2 8.0 0.00 0.00 0.00 86 1008.0
20260506183903 28 190 1.6 8.0 0.00 0.00 0.00 85 1008.0
20260506183358 28 190 1.6 8.0 0.00 0.00 0.00 85 1008.1
20260506182354 29 191 0.0 4.8 0.00 0.00 0.00 85 1008.1
20260506181849 29 190 0.0 4.8 0.00 0.00 0.00 85 1008.2
20260506181346 28 190 0.0 3.2 0.00 0.00 0.00 86 1008.3
20260506180842 28 190 0.0 3.2 0.00 0.00 0.00 86 1008.4
20260506180324 28 190 0.0 3.2 0.00 0.00 0.00 86 1008.5
20260506175818 28 190 0.0 4.8 0.00 0.00 0.00 86 1008.5
20260506175318 28 190 1.6 4.8 0.00 0.00 0.00 86 1008.6
20260506175254 28 190 1.6 6.4 0.00 0.00 0.00 86 1008.6
20260506174254 28 190 1.6 6.4 0.00 0.00 0.00 86 1008.6
20260506174019 28 191 1.6 6.4 0.00 0.00 0.00 86 1008.6
20260506173254 28 191 1.6 6.4 0.00 0.00 0.00 87 1008.7
20260506172754 28 191 1.6 3.2 0.00 0.00 0.00 88 1008.8
20260506172249 28 190 1.6 6.4 0.00 0.00 0.00 88 1008.9
20260506171747 28 191 1.6 6.4 0.00 0.00 0.00 88 1008.9
20260506171246 28 191 1.6 6.4 0.00 0.00 0.00 89 1009.0
20260506170745 28 190 1.6 6.4 0.00 0.00 0.00 89 1009.0
20260506170242 27 190 3.2 9.7 0.00 0.00 0.00 89 1009.0
20260506165732 27 191 3.2 9.7 0.00 0.00 0.00 89 1009.1
20260506165506 27 194 1.6 9.7 0.00 0.00 0.00 90 1009.0
20260506164722 27 194 1.6 8.0 0.00 0.00 0.00 91 1009.0
20260506164216 27 194 1.6 6.4 0.00 0.00 0.00 92 1009.0
20260506163715 27 194 1.6 6.4 0.00 0.00 0.00 93 1008.9
20260506163438 27 194 1.6 6.4 0.00 0.00 0.00 93 1009.0
20260506162923 26 194 1.6 6.4 0.00 0.00 0.00 93 1008.9
20260506162200 26 194 1.6 6.4 0.00 0.00 0.00 92 1008.8
20260506161658 26 194 0.0 3.2 0.00 0.00 0.00 92 1008.9
20260506161154 26 194 0.0 3.2 0.00 0.00 0.00 92 1008.8
20260506160630 26 194 0.0 4.8 0.00 0.00 0.00 93 1008.8
20260506160130 26 194 0.0 4.8 0.00 0.00 0.00 93 1008.8
20260506155845 26 194 0.0 3.2 0.00 0.00 0.00 93 1008.8
20260506155110 26 194 0.0 3.2 0.00 0.00 0.00 93 1008.8
20260506154554 26 194 0.0 3.2 0.00 0.00 0.00 94 1008.8
20260506154055 26 194 0.0 3.2 0.00 0.00 0.00 93 1008.7
20260506153554 26 194 0.0 3.2 0.00 0.00 0.00 93 1008.6
20260506153052 26 194 0.0 4.8 0.00 0.00 0.00 93 1008.5
20260506152531 26 194 0.0 4.8 0.00 0.00 0.00 93 1008.3
20260506151954 26 194 0.0 4.8 0.00 0.00 0.00 93 1008.4
20260506151450 26 194 0.0 6.4 0.00 0.00 0.00 93 1008.5
20260506150938 26 194 0.0 6.4 0.00 0.00 0.00 94 1008.4
20260506150434 26 194 0.0 1.6 0.00 0.00 0.00 94 1008.3
20260506145909 26 194 0.0 4.8 0.00 0.00 0.00 94 1008.2
20260506145356 26 194 0.0 6.4 0.00 0.00 0.00 94 1008.1
20260506144856 26 194 0.0 6.4 0.00 0.00 0.00 94 1008.0
20260506144354 26 194 0.0 4.8 0.00 0.00 0.00 94 1007.8
20260506143853 25 194 1.6 4.8 0.00 0.00 0.00 94 1007.7
20260506143353 25 194 1.6 6.4 0.00 0.00 0.00 94 1007.7
20260506142852 25 194 1.6 8.0 0.00 0.00 0.00 94 1007.6
20260506142622 25 194 1.6 8.0 0.00 0.00 0.00 94 1007.8
20260506142110 25 194 1.6 6.4 0.00 0.00 0.00 94 1007.8
20260506141352 25 194 0.0 4.8 0.00 0.00 0.00 94 1007.9
20260506141111 25 194 1.6 6.4 0.00 0.00 0.00 95 1008.0
20260506140604 25 194 0.0 6.4 0.00 0.00 0.00 95 1008.0
20260506135836 25 194 0.0 4.8 0.00 0.00 0.00 95 1007.9
20260506135334 25 194 0.0 4.8 0.00 0.00 0.00 95 1008.0
20260506134820 25 194 0.0 3.2 0.00 0.00 0.00 95 1008.0
20260506134316 25 194 0.0 3.2 0.00 0.00 0.00 95 1008.1
20260506133805 25 194 0.0 3.2 0.00 0.00 0.00 95 1008.0
20260506133253 25 194 0.0 3.2 0.00 0.00 0.00 95 1008.0
20260506133005 25 194 0.0 3.2 0.00 0.00 0.00 95 1008.1
20260506132234 25 194 0.0 1.6 0.00 0.00 0.00 95 1008.1
20260506131951 25 194 0.0 1.6 0.00 0.00 0.00 95 1008.1
20260506131226 25 194 0.0 1.6 0.00 0.00 0.00 95 1008.1
20260506130714 25 194 0.0 3.2 0.00 0.00 0.00 95 1008.1
20260506130203 25 194 0.0 3.2 0.00 0.00 0.00 95 1008.1
20260506125658 25 194 0.0 1.6 0.00 0.00 0.00 95 1008.1
20260506125411 25 194 0.0 3.2 0.00 0.00 0.00 95 1008.1
20260506124650 25 194 0.0 3.2 0.00 0.00 0.00 95 1008.1
20260506124146 25 194 0.0 3.2 0.00 0.00 0.00 95 1008.0
20260506123849 25 194 0.0 1.6 0.00 0.00 0.00 95 1007.9
20260506123322 25 194 0.0 1.6 0.00 0.00 0.00 95 1007.9
20260506122600 25 194 0.0 3.2 0.00 0.00 0.00 95 1007.8
20260506122056 25 194 0.0 3.2 0.00 0.00 0.00 95 1007.8
20260506121544 25 194 0.0 3.2 0.00 0.00 0.00 95 1007.8
20260506120956 25 194 0.0 6.4 0.00 0.00 0.00 95 1007.8
20260506120454 25 194 0.0 6.4 0.00 0.00 0.00 95 1007.6
20260506115942 25 194 0.0 4.8 0.00 0.00 0.00 95 1007.7
20260506115416 25 194 0.0 4.8 0.00 0.00 0.00 95 1007.5
20260506114858 25 194 0.0 4.8 0.00 0.00 0.00 95 1007.4
20260506114351 25 194 0.0 4.8 0.00 0.00 0.00 95 1007.4
20260506114052 25 194 0.0 3.2 0.00 0.00 0.00 95 1007.3
20260506113252 25 194 0.0 3.2 0.00 0.00 0.00 95 1007.3
20260506112752 25 194 0.0 4.8 0.00 0.00 0.00 95 1007.3
20260506112248 25 194 0.0 4.8 0.00 0.00 0.00 95 1007.1
20260506111748 25 194 0.0 4.8 0.00 0.00 0.00 95 1007.0
20260506111507 25 194 0.0 4.8 0.00 0.00 0.00 95 1007.1
20260506111227 25 194 0.0 4.8 0.00 0.00 0.00 95 1007.0
20260506110242 24 194 1.6 6.4 0.00 0.00 0.00 95 1006.9
20260506105743 24 194 0.0 6.4 0.00 0.00 0.00 95 1006.9
20260506105240 24 194 0.0 3.2 0.00 0.00 0.00 95 1007.0
20260506104723 24 194 0.0 1.6 0.00 0.00 0.00 95 1007.1
20260506104356 24 194 0.0 1.6 0.00 0.00 0.00 94 1007.1
20260506104246 24 194 0.0 1.6 0.00 0.00 0.00 94 1007.1
20260506103152 24 194 0.0 3.2 0.00 0.00 0.00 94 1007.1
20260506102914 24 194 0.0 3.2 0.00 0.00 0.00 94 1006.9
20260506102144 24 194 0.0 0.0 0.00 0.00 0.00 94 1006.9
20260506101640 24 194 0.0 0.0 0.00 0.00 0.00 94 1006.9
20260506101126 24 194 0.0 0.0 0.00 0.00 0.00 94 1007.0
20260506100547 24 194 0.0 1.6 0.00 0.00 0.00 94 1007.0
20260506100040 24 194 0.0 1.6 0.00 0.00 0.00 94 1006.9
20260506095540 24 194 0.0 0.0 0.00 0.00 0.00 94 1006.8
20260506095008 24 194 0.0 0.0 0.00 0.00 0.00 94 1006.9
20260506094504 24 194 0.0 0.0 0.00 0.00 0.00 94 1006.8
20260506093944 24 194 0.0 0.0 0.00 0.00 0.00 94 1006.7
20260506093439 24 194 0.0 1.6 0.00 0.00 0.00 94 1006.8
20260506092935 24 194 0.0 1.6 0.00 0.00 0.00 94 1006.8
20260506092415 24 194 0.0 1.6 0.00 0.00 0.00 94 1006.8
20260506091908 24 194 0.0 1.6 0.00 0.00 0.00 94 1006.9
20260506091406 24 194 0.0 0.0 0.00 0.00 0.00 94 1006.9
20260506090857 24 194 0.0 3.2 0.00 0.00 0.00 94 1006.9
20260506090352 24 194 0.0 3.2 0.00 0.00 0.00 94 1006.7
20260506085850 24 194 0.0 1.6 0.00 0.00 0.00 94 1006.7
20260506085612 24 194 0.0 1.6 0.00 0.00 0.00 94 1006.8
20260506084832 24 194 0.0 4.8 0.00 0.00 0.00 94 1007.0
20260506084321 24 194 0.0 4.8 0.00 0.00 0.00 94 1007.0
20260506083752 24 194 0.0 6.4 0.00 0.00 0.00 94 1007.1
20260506083248 24 194 0.0 6.4 0.00 0.00 0.00 94 1007.0
20260506082742 25 194 0.0 8.0 0.00 0.00 0.00 93 1007.0
20260506082238 25 194 0.0 8.0 0.00 0.00 0.00 93 1007.1
20260506081712 25 194 0.0 4.8 0.00 0.00 0.00 93 1007.1
20260506081420 25 194 0.0 4.8 0.00 0.00 0.00 93 1007.1
20260506080704 25 194 0.0 3.2 0.00 0.00 0.00 93 1007.2
20260506080201 25 194 0.0 4.8 0.00 0.00 0.00 93 1007.2
20260506073155 25 194 3.2 6.4 0.00 0.00 0.00 93 1007.5
20260506072656 25 194 1.6 8.0 0.00 0.00 0.00 92 1007.5
20260506072154 25 194 1.6 8.0 0.00 0.00 0.00 92 1007.6
20260506071654 25 194 1.6 6.4 0.00 0.00 0.00 92 1007.7
20260506071154 25 194 0.0 3.2 0.00 0.00 0.00 92 1007.9
20260506070913 25 194 0.0 4.8 0.00 0.00 0.00 92 1007.8
20260506070154 25 194 1.6 6.4 0.00 0.00 0.00 92 1007.8
20260506062110 25 194 1.6 8.0 0.00 0.00 0.00 92 1007.9
20260506061559 25 194 1.6 8.0 0.00 0.00 0.00 92 1007.8
20260506061100 25 194 1.6 6.4 0.00 0.00 0.00 91 1007.7
20260506060556 25 194 1.6 6.4 0.00 0.00 0.00 91 1007.8
20260506050949 25 194 1.6 6.4 0.00 0.00 0.00 91 1007.9
20260506050447 25 194 1.6 6.4 0.00 0.00 0.00 91 1008.0
20260506044910 25 194 1.6 6.4 0.00 0.00 0.00 91 1007.9
20260506044405 25 194 1.6 6.4 0.00 0.00 0.00 91 1007.9
20260506043906 25 194 1.6 6.4 0.00 0.00 0.00 91 1007.9
20260506043404 25 194 3.2 8.0 0.00 0.00 0.00 91 1007.8
20260506043120 25 194 3.2 8.0 0.00 0.00 0.00 91 1007.8
20260506042355 25 194 3.2 8.0 0.00 0.00 0.00 91 1007.8
20260506041856 25 194 3.2 8.0 0.00 0.00 0.00 91 1007.7
20260506041354 25 194 1.6 8.0 0.00 0.00 0.00 91 1007.7
20260506040853 25 194 3.2 8.0 0.00 0.00 0.00 91 1007.7
20260506040353 25 193 1.6 8.0 0.00 0.00 0.00 91 1007.6
20260506035854 25 193 1.6 6.4 0.00 0.00 0.00 91 1007.6
20260506035348 25 193 1.6 8.0 0.00 0.00 0.00 91 1007.5
20260506034849 25 193 1.6 8.0 0.00 0.00 0.00 91 1007.5
20260506034350 25 193 1.6 8.0 0.00 0.00 0.00 91 1007.5
20260506033850 25 193 1.6 4.8 0.00 0.00 0.00 91 1007.5
20260506033350 25 193 1.6 6.4 0.00 0.00 0.00 91 1007.5
20260506032846 25 193 1.6 6.4 0.00 0.00 0.00 91 1007.6
20260506032345 25 192 1.6 8.0 0.00 0.00 0.00 91 1007.4
20260506031839 25 192 1.6 8.0 0.00 0.00 0.00 91 1007.4
20260506031338 25 192 1.6 8.0 0.00 0.00 0.00 91 1007.4
20260506030838 25 192 1.6 8.0 0.00 0.00 0.00 91 1007.3
20260506030334 25 192 1.6 6.4 0.00 0.00 0.00 91 1007.3
20260506025830 25 192 3.2 11.3 0.00 0.00 0.00 91 1007.3
20260506025804 25 192 3.2 11.3 0.00 0.00 0.00 90 1007.2
20260506024825 25 192 3.2 9.7 0.00 0.00 0.00 90 1007.1
20260506024324 25 190 3.2 8.0 0.00 0.00 0.00 90 1007.1
20260506023825 25 191 3.2 11.3 0.00 0.00 0.00 90 1007.0
20260506023553 25 191 1.6 11.3 0.00 0.00 0.00 90 1007.0
20260506022824 25 191 1.6 6.4 0.00 0.00 0.00 90 1006.9
20260506022322 26 191 1.6 6.4 0.00 0.00 0.00 90 1006.7
20260506021822 26 191 1.6 6.4 0.00 0.00 0.00 89 1006.7
20260506021300 26 191 3.2 9.7 0.00 0.00 0.00 89 1006.7
20260506020758 26 191 3.2 9.7 0.00 0.00 0.00 89 1006.6
20260506020253 26 192 3.2 8.0 0.00 0.00 0.00 89 1006.5
20260506020007 26 191 3.2 11.3 0.00 0.00 0.00 88 1006.4
20260506015252 26 191 4.8 11.3 0.00 0.00 0.00 88 1006.3
20260506015012 26 188 3.2 9.7 0.00 0.00 0.00 88 1006.2
20260506014511 26 188 3.2 9.7 0.00 0.00 0.00 88 1006.2
20260506013750 26 188 3.2 8.0 0.00 0.00 0.00 87 1006.1
20260506013246 26 188 1.6 8.0 0.00 0.00 0.00 87 1006.0
20260506012736 26 188 1.6 8.0 0.00 0.00 0.00 87 1006.0
20260506012230 26 186 1.6 9.7 0.00 0.00 0.00 86 1005.9
20260506011730 26 185 3.2 9.7 0.00 0.00 0.00 86 1006.0
20260506011222 26 186 3.2 11.3 0.00 0.00 0.00 86 1005.8
20260506010709 26 186 3.2 11.3 0.00 0.00 0.00 86 1005.7
20260506010208 26 202 3.2 9.7 0.00 0.00 0.00 86 1005.7
20260506005702 26 202 3.2 9.7 0.00 0.00 0.00 86 1005.7
20260506005155 26 202 3.2 9.7 0.00 0.00 0.00 86 1005.5
20260506004646 26 203 3.2 9.7 0.00 0.00 0.00 86 1005.6
20260506004136 26 205 3.2 8.0 0.00 0.00 0.00 86 1005.5
20260506003638 26 207 3.2 9.7 0.00 0.00 0.00 85 1005.5
20260506003128 26 211 3.2 9.7 0.00 0.00 0.00 85 1005.4
20260506002628 26 194 3.2 12.9 0.00 0.00 0.00 85 1005.4
20260506002127 27 197 3.2 12.9 0.00 0.00 0.00 85 1005.4
20260506001847 27 221 3.2 11.3 0.00 0.00 0.00 84 1005.3
20260506001306 27 197 4.8 9.7 0.00 0.00 0.00 84 1005.3
20260506001152 27 173 3.2 11.3 0.00 0.00 0.00 84 1005.4
20260506000056 27 198 4.8 16.1 0.00 0.00 0.00 83 1005.3
20260505235554 27 215 4.8 16.1 0.00 0.00 0.00 83 1005.4
20260505235053 27 219 3.2 14.5 0.00 0.00 0.00 82 1005.4
20260505234550 27 194 3.2 9.7 0.00 0.00 0.00 82 1005.4
20260505234045 27 193 4.8 9.7 0.00 0.00 0.00 82 1005.3
20260505233803 27 188 4.8 12.9 0.00 0.00 0.00 81 1005.3
20260505233046 27 208 4.8 12.9 0.00 0.00 0.00 82 1005.3
20260505232543 27 208 4.8 12.9 0.00 0.00 0.00 81 1005.5
20260505232042 27 209 4.8 14.5 0.00 0.00 0.00 82 1005.4
20260505231540 27 198 4.8 14.5 0.00 0.00 0.00 81 1005.4
20260505231038 27 220 6.4 16.1 0.00 0.00 0.00 81 1005.4
20260505230533 27 193 6.4 16.1 0.00 0.00 0.00 81 1005.4
20260505230256 27 186 6.4 14.5 0.00 0.00 0.00 81 1005.3
20260505225534 27 189 4.8 14.5 0.00 0.00 0.00 81 1005.5
20260505225242 28 196 4.8 12.9 0.00 0.00 0.00 81 1005.5
20260505224516 28 188 4.8 14.5 0.00 0.00 0.00 80 1005.5
20260505224016 28 174 4.8 14.5 0.00 0.00 0.00 80 1005.4
20260505223516 27 189 4.8 11.3 0.00 0.00 0.00 80 1005.4
20260505223009 28 198 4.8 12.9 0.00 0.00 0.00 81 1005.5
20260505222509 28 182 4.8 12.9 0.00 0.00 0.00 80 1005.6
20260505222010 28 221 4.8 12.9 0.00 0.00 0.00 80 1005.7
20260505221510 28 145 4.8 12.9 0.00 0.00 0.00 81 1005.7
20260505221006 28 144 4.8 12.9 0.00 0.00 0.00 81 1005.6
20260505220507 28 183 4.8 12.9 0.00 0.00 0.00 81 1005.6
20260505220006 28 182 4.8 14.5 0.00 0.00 0.00 81 1005.6
20260505215502 28 202 6.4 14.5 0.00 0.00 0.00 81 1005.7
20260505215002 28 174 6.4 14.5 0.00 0.00 0.00 81 1005.8
20260505214503 28 201 4.8 14.5 0.00 0.00 0.00 81 1005.9
20260505214230 28 207 6.4 12.9 0.00 0.00 0.00 81 1005.9
20260505213502 28 211 4.8 11.3 0.00 0.00 0.00 81 1005.9